Find Starlink 30291

NORAD ID: 57856 Int'l Des: 2023-141 Owner: SPXS Country: US Constellation: starlink operational
LEOCIRCULAR

Live Position

Loading 3D Globe...

About Starlink 30291

Description loading...

Upcoming Passes

Passes for default location (London). Set your location on the main map for personalized predictions.

Altitude History

Loading altitude history...

Two-Line Element Set

1 57856U 23141S 26125.86709661 -.00008988 00000-0 -27827-3 0 9995
2 57856 53.1599 18.4317 0001008 107.0816 253.0296 15.31693934149084
Epoch: May 5, 2026 • Age: 6 hours

Current Status

Altitude 473.5 km
Velocity 7.63 km/s
Sub-Earth Point -10.29°S, 54.02°W
Launch Date Sep 12, 2023
Age 2.6 years
Type internet

Technical Details

Classification Payload
Mass 730.00 kg
Dry Mass 700.00 kg
Total Mass 730.00 kg
Length 0.30 m
Diameter 4.10 m
Span 29.00 m
Shape Box + pan
Manufacturer SPXS
Bus Type Starlink V2M
Phase Status In Orbit
Owner/State SPXS/US

Most Searched